RH
89 74 61 57 44 33 26 27 25 27 32 32 25 25 26 30 28 26 28 33 52 65 91 83 83 67 55 60 84 87 87 83 90
90 87 66 46 29 27 26 27 30 34 40 43 39 38 38 38 36 36 34 34 45 54 94 95 97 97 86 78 90 92 89 91 94
90 86 72 36 29 28 31 34 37 38 46 43 46 48 50 55 60 58 48 41 37 47 80 95 96 83 92 98 98 99 97 94 94
71 70 46 33 32 35 38 40 42 43 45 47 51 54 64 66 67 67 66 64 63 61 59 92 94 91 72 68 88 100 98 98 98
47 49 45 42 38 38 41 44 46 49 54 57 59 66 65 67 68 71 75 76 77 78 75 76 91 83 74 69 57 40 85 91 86
64 59 57 47 46 46 48 52 56 59 63 68 74 81 84 85 83 83 83 85 85 84 85 90 87 87 86 87 84 80 69 52 81
59 62 60 62 64 62 60 62 65 68 76 82 88 88 88 87 84 80 81 81 82 84 89 90 89 88 87 86 87 90 98 93 87
67 63 64 70 72 74 77 82 86 89 90 90 86 87 84 81 77 79 81 76 78 88 89 86 86 88 90 88 84 85 85 92 96
80 79 80 82 86 90 93 91 92 92 91 89 86 90 88 94 89 85 84 86 83 86 79 79 78 80 81 82 89 90 90 88 92
83 83 86 89 92 93 91 88 87 86 83 83 88 89 83 73 59 55 56 57 71 82 81 75 79 83 84 90 88 83 83 78 68
91 92 94 88 91 90 85 84 83 82 77 79 66 44 37 36 40 43 42 41 39 41 47 68 73 74 86 88 83 91 96 91 88
96 96 94 90 89 89 86 83 82 78 44 35 35 34 33 34 35 36 37 39 37 48 64 71 75 73 72 73 72 77 78 81 79
94 95 91 88 86 84 79 43 35 35 33 29 26 24 23 22 22 23 30 48 58 60 57 59 63 58 51 47 50 56 59 56 62
96 93 91 75 46 35 36 34 32 31 30 28 26 24 21 22 36 48 54 43 37 29 23 26 32 36 35 32 35 37 42 46 49
86 49 36 37 36 35 34 32 30 27 25 24 23 22 19 26 18 22 26 23 22 16 18 31 24 19 12 9 14 20 26 37 49
36 37 37 36 36 36 35 32 28 24 22 21 21 18 18 18 28 22 17 11 9 15 28 16 7 5 4 4 4 5 9 23 45
39 39 40 42 43 40 34 29 24 19 14 13 19 19 19 29 20 20 13 13 12 12 13 7 6 6 6 7 9 7 10 21 53
42 44 46 46 42 34 29 23 18 14 12 13 24 24 34 23 22 14 18 13 9 7 7 6 6 8 10 20 16 19 18 45 74
47 48 47 40 33 29 22 15 13 12 13 14 19 24 30 32 36 25 12 16 12 12 12 13 15 15 24 25 29 25 44 57 68
50 48 39 30 27 20 15 13 13 14 15 18 20 20 20 22 46 50 33 13 11 11 16 18 18 27 35 43 41 55 62 73 82
Wind_Speed
5 3 4 7 6 5 3 1 2 3 5 7 8 8 7 9 10 9 8 10 8 9 9 16 13 11 13 16 16 17 18 18 17
5 4 5 6 5 5 5 3 2 3 3 4 5 6 7 8 9 10 10 9 11 10 9 12 15 12 13 15 16 18 19 20 21
7 4 5 5 4 5 5 5 5 6 6 6 7 7 8 9 10 11 11 9 9 11 10 12 14 14 14 15 17 19 19 20 19
3 3 3 3 4 5 6 6 6 7 7 8 9 9 9 11 11 10 10 10 11 11 11 10 15 15 15 16 17 19 19 22 22
2 1 1 4 5 6 6 6 6 6 7 7 7 8 10 12 12 13 12 13 14 15 14 13 15 18 20 20 19 19 21 22 22
3 1 3 4 5 5 5 5 5 6 6 6 8 10 11 12 14 15 15 16 17 18 17 19 20 20 21 22 23 24 23 23 24
0 3 3 3 5 5 5 6 6 7 7 7 9 11 14 16 15 16 17 18 19 20 18 21 23 24 23 22 24 23 24 25 26
3 3 4 4 6 6 7 8 8 9 10 11 12 12 13 15 16 16 17 18 18 18 20 22 23 24 25 25 25 23 22 26 28
3 3 4 6 8 9 9 10 10 10 12 16 17 16 17 17 18 20 19 18 19 20 22 23 25 26 25 25 27 28 26 26 27
7 7 6 7 7 8 9 10 12 14 17 19 20 19 20 20 19 18 18 20 22 24 24 25 21 20 21 21 23 25 23 23 25
10 10 11 8 9 10 13 15 18 19 18 20 19 18 18 19 20 20 20 20 22 22 21 21 21 20 20 21 24 24 22 24 24
10 8 6 9 10 13 16 16 19 19 17 18 19 20 21 22 23 24 25 25 22 20 18 17 16 17 18 19 20 19 22 24 26
8 7 7 10 12 14 16 14 15 17 20 21 22 22 20 20 20 20 17 14 13 14 18 20 21 20 21 21 22 25 25 27 28
7 6 8 9 9 11 13 16 18 21 22 22 21 19 17 14 11 10 9 13 17 19 22 21 19 20 22 24 26 27 28 30 31
5 3 4 7 10 13 15 17 18 19 21 21 20 18 11 11 18 13 12 18 20 23 21 17 21 25 28 29 29 29 30 30 28
2 3 7 11 14 17 18 17 17 16 19 22 23 18 9 9 5 11 16 23 20 16 17 26 30 29 29 28 28 30 31 31 29
1 6 10 14 16 18 18 17 15 15 19 22 19 13 17 4 23 11 28 20 23 26 28 29 31 30 29 28 27 30 31 31 29
5 9 13 16 18 17 15 15 16 17 17 18 12 9 7 34 13 34 24 33 29 34 32 33 32 30 31 29 33 29 32 29 27
8 12 16 18 17 14 13 14 15 17 18 19 16 14 16 13 20 26 41 34 41 39 38 36 34 36 30 32 32 32 27 32 32
10 14 17 17 14 13 13 14 15 17 19 20 23 24 25 24 20 31 34 44 43 42 37 38 39 33 34 32 33 32 34 28 28
Wind_Direction
250 304 26 12 10 24 34 123 222 253 265 272 283 290 301 309 314 318 301 280 258 251 263 282 285 268 253 251 246 252 266 277 279
233 290 349 1 16 25 33 32 356 317 296 301 317 337 346 341 340 335 327 307 276 270 273 266 278 286 269 260 262 261 258 263 272
216 251 318 343 9 18 14 12 6 3 352 350 347 343 342 347 344 338 337 333 298 288 278 272 277 279 268 265 266 266 270 269 263
214 270 308 3 19 10 4 356 353 355 354 350 341 336 338 345 350 357 357 345 337 329 318 282 279 288 289 279 272 268 268 273 278
165 129 65 10 1 349 346 343 347 348 349 345 342 333 334 331 334 334 334 332 330 326 321 312 299 302 306 305 298 279 265 267 262
142 88 358 351 12 0 347 343 344 338 339 339 337 335 339 336 337 336 337 332 329 325 322 312 306 303 303 303 300 292 285 275 264
3 337 4 17 6 358 341 331 329 327 325 329 328 330 329 323 323 323 322 318 315 315 309 296 297 300 300 302 301 289 282 280 274
340 325 323 339 333 329 329 333 332 331 327 324 324 314 309 308 309 306 306 307 303 299 295 297 293 289 291 295 293 291 290 283 280
298 300 299 319 318 320 325 328 326 322 315 307 304 298 297 298 299 299 298 294 288 283 282 283 286 291 295 294 288 284 284 284 282
266 267 267 296 306 299 298 296 295 298 299 297 293 291 290 288 291 291 289 284 281 282 285 284 286 282 286 290 296 296 292 291 292
262 256 265 263 276 284 288 294 297 297 292 287 289 291 293 294 291 289 287 286 287 289 286 283 286 281 284 283 282 289 292 290 291
257 259 262 267 281 285 293 293 286 285 288 290 292 292 293 290 287 287 289 291 291 291 291 289 292 290 290 289 285 285 284 289 290
258 254 272 281 287 285 284 289 291 295 296 298 299 301 301 295 290 287 288 288 288 290 293 292 288 289 292 290 289 289 288 286 285
250 255 279 281 289 295 299 303 305 305 304 306 309 311 307 296 295 287 282 292 296 300 298 293 292 291 291 290 288 287 288 286 283
244 253 289 307 309 310 311 312 313 314 315 316 317 319 303 282 293 282 292 298 296 302 296 296 296 296 296 294 293 292 288 290 297
201 302 319 325 325 325 324 322 321 322 324 327 327 338 317 286 240 307 300 315 312 301 293 299 302 301 299 295 291 288 286 288 297
291 335 335 334 332 328 326 328 333 340 343 345 345 336 339 214 304 305 314 315 315 303 298 304 308 308 310 304 299 298 296 297 306
339 341 338 335 332 330 332 334 338 342 348 351 358 338 319 322 315 315 316 314 314 314 313 311 312 312 313 307 306 304 301 303 304
342 340 336 332 332 334 337 340 340 341 341 342 333 331 318 318 315 308 315 317 315 317 317 316 315 316 312 309 305 306 306 306 301
337 335 334 334 335 337 336 335 337 337 336 334 330 326 321 320 307 307 311 313 313 314 314 313 313 315 312 309 309 308 306 304 303